CST,Max TemperatureF,Mean TemperatureF,Min TemperatureF,Max Dew PointF,MeanDew PointF,Min DewpointF,Max Humidity, Mean Humidity, Min Humidity, Max Sea Level PressureIn, Mean Sea Level PressureIn, Min Sea Level PressureIn, Max VisibilityMiles, Mean VisibilityMiles, Min VisibilityMiles, Max Wind SpeedMPH, Mean Wind SpeedMPH, Max Gust SpeedMPH,PrecipitationIn, CloudCover, Events, WindDirDegrees
1999-1-1,80,74,68,64,63,63,83,67,57,29.98,29.93,29.89,6,6,6,22,15,,0.00,4,,112
1999-1-2,78,70,62,70,66,59,94,82,57,30.04,29.95,29.89,6,5,4,14,5,,0.00,5,Fog-Rain,248
1999-1-3,84,75,66,64,62,61,94,68,45,30.04,29.96,29.89,6,6,6,17,9,,0.00,5,,97
1999-1-4,80,73,66,66,62,59,83,71,54,30.04,29.98,29.92,6,6,6,18,10,,0.00,3,,109
1999-1-5,80,71,62,63,58,55,78,65,45,30.04,30.00,29.95,6,6,6,20,10,23,0.00,4,,97
1999-1-6,80,73,66,59,58,55,78,59,42,30.04,29.99,29.95,6,6,6,28,17,29,0.00,2,,92
1999-1-7,80,73,66,63,59,57,73,61,50,30.04,29.99,29.92,6,6,6,20,16,24,0.00,2,,106
1999-1-8,78,72,66,61,58,54,78,62,42,30.01,29.96,29.89,6,6,6,24,14,,0.00,2,,99
1999-1-9,80,70,59,68,63,55,100,80,54,30.01,29.96,29.92,6,5,3,12,6,,0.00,4,Rain,229
1999-1-10,82,72,62,63,60,55,88,65,42,30.04,29.98,29.92,6,6,6,20,11,,0.00,1,,93
1999-1-11,80,74,68,63,61,59,78,66,48,30.04,30.00,29.95,6,6,6,23,10,,0.00,3,,97
1999-1-12,80,73,66,63,62,61,83,73,54,30.04,29.99,29.92,6,6,6,21,10,,0.00,4,,90
1999-1-13,80,72,64,66,61,59,94,72,51,30.06,30.01,29.95,6,6,4,16,10,,0.00,3,Fog,96
1999-1-14,82,70,59,61,58,55,94,70,45,30.06,30.03,29.95,6,6,6,16,8,,0.00,4,,105
1999-1-15,80,72,64,73,59,54,83,66,42,30.09,30.01,29.95,6,6,6,17,9,,0.00,1,,109
1999-1-16,69,66,62,66,59,54,94,80,72,30.09,30.04,29.98,6,6,6,10,6,,0.00,3,,109
1999-1-17,80,71,62,59,57,55,77,66,42,30.06,30.04,29.98,6,6,6,17,10,,0.00,2,,103
1999-1-18,82,72,62,57,56,50,77,57,34,30.06,30.02,29.95,6,6,6,22,12,,0.00,2,,103
1999-1-19,82,73,64,61,57,48,78,57,38,30.06,30.00,29.92,6,6,6,20,16,,0.00,1,,110
1999-1-20,82,74,66,73,58,54,78,59,37,30.04,29.98,29.92,6,6,6,18,13,,0.00,1,,93
1999-1-21,82,74,62,59,57,54,77,59,39,29.98,29.94,29.86,6,6,6,23,16,,0.00,1,,107
1999-1-22,84,72,60,66,57,46,88,63,30,29.98,29.93,29.89,6,6,6,17,11,,0.00,2,,109
1999-1-23,78,70,62,63,60,57,88,71,51,29.98,29.93,29.86,6,6,6,20,11,,0.00,4,,98
1999-1-24,78,73,68,61,58,54,73,63,50,30.01,29.93,29.89,6,6,6,24,18,36,0.00,4,,103
1999-1-25,80,73,66,63,59,54,73,63,54,30.04,29.97,29.92,6,6,6,29,20,32,0.00,1,,96
1999-1-26,80,74,68,61,58,55,73,57,47,30.01,29.96,29.92,6,6,6,28,21,34,0.00,2,,95
1999-1-27,80,74,68,61,59,57,78,64,51,30.01,29.94,29.89,6,6,6,29,20,,0.00,2,,110
1999-1-28,82,74,66,61,58,55,78,61,45,30.01,29.94,29.86,6,6,6,23,15,28,0.00,2,,114
1999-1-29,82,73,64,63,59,54,78,63,48,29.98,29.94,29.86,6,6,6,20,15,,0.00,2,,112
1999-1-30,78,72,66,61,60,57,83,71,50,30.01,29.96,29.89,6,6,6,25,11,,0.00,1,,100
1999-1-31,84,75,66,61,59,55,78,65,40,30.01,29.95,29.89,6,6,6,28,15,,0.00,2,,100